STARLINK-1953

decayed
NORAD ID: 47554 Int'l Des: 2021-009 Owner: SPXS Country: US Constellation: starlink
LEOCIRCULAR

关于 STARLINK-1953

正在加载描述...

高度历史

Altitude vs Time

uPlot chart will show altitude changes over time

两行轨道根数

1 47554U 21009G 25068.59415453 .12363957 12436-4 87064-3 0 9998
2 47554 53.0321 183.3129 0007547 302.8094 158.4593 16.40181792226898
Epoch: Mar 9, 2025 • Age: 4325 hours

当前状态

Position data unavailable
发射日期 Feb 4, 2021
运行时间 4.5 years
衰减日期 Mar 9, 2025
类型 internet

技术详情

分类 Payload
质量 260.00 kg
干质量 248.00 kg
总质量 260.00 kg
长度 0.20 m
直径 2.80 m
跨度 9.00 m
形状 Box + pan
制造商 SPXS
平台类型 Starlink
阶段状态 Unknown Transfer Status
所有者/国家 SPXS/US

大型星座

Loading constellations...